THORAD AGENA D DEB, 42513

Orbit data source: Space-Track

THORAD AGENA D DEB, 42513 is space debris in SSO originally from a launch on Wed, 08 Apr 1970 UTC launched from the Air Force Western Test Range (AFWTR). Debris objects in space refer to the collection of defunct objects orbiting the Earth. Examples of debris include non-operational satellites, rocket bodies, and fragments generated from explosions, collisions, or faulty payload assembly.

Loading next visibility...
THORAD AGENA D DEB details
Identifier
42513, 1970-025RT
Orbit
SSO
Last TLE update2 days ago
Origin
Flag of USNASA LeRC (US)
ManufacturerUnknown
MissionSpacecraft
Bus & MotorUnknown
MassUnknown
Launch date (UTC)
1970-04-08 (55 years ago)
Launch vehicleUnknown
Launch site
Air Force Western Test Range (AFWTR)
Object type
Payload
Rocket body
Debris
Shape & HBRUnknown
Radar Cross SectionSmall (<0.1 m²)

Expand to show TLE details & history

TLE from 2 days ago
0 THORAD AGENA D DEB
1 42513U 70025RT  24359.58583637  .00002790  00000-0  23631-2 0  9992
2 42513  99.9797 284.6724 0013355 121.3432 238.9032 13.88466891 50694
Epoch: 2024-12-24T14:03Z
Definitive object data (Epoch: 2024-12-24T14:03:36.262Z)
Latitude0.00003°
Longitude-19.82051°
Altitude941.891 km
Speed7.378 km/s
True Right ascension18h 58m 41s
True Declination0° 00' 00"
Sunlit
Object was in daylight at TLE epoch
Visualization TLE readout
Latitude-61.32931°
Longitude1.37755°
Altitude967.233 km
Speed7.362 km/s
Apparent Right ascension13h 03m 32s
Apparent Declination-77° 08' 21"
Sunlit
Object is in daylight
Visualization observer readout
Local Sidereal Time22:12:55
Azimuth193.207° SSW
Elevation-48.687°
Doppler factor1
Orbital elements
Apogee altitude941.035 km
Perigee altitude921.512 km
Semi-major axis7,309.411 km
Eccentricity0.0013355
Inclination99.9797°
RAAN284.6724°
Arg. of periapsis121.3432°
True anomaly238.77227°
Mean anomaly238.9032°
Eccentric anomaly238.83772°
Mean motion3.47312 °/min
BSTAR0.0023631
Orbital period103.65 mins
Loading maneuver chart data...

THORAD AGENA D DEB Visibility forecast

Observer location: undefined°, undefined

Span
Click to sort rows by Start time (UTC) header in descending order
Start Az.
Max El. time (UTC)
Max El. Az.
Max El.
End time (UTC)
End Az.
4 mins2024-12-27 06:41:42.083Z68.567° E2024-12-27 06:43:42.083Z90.04° ESE13.357°2024-12-27 06:45:42.083Z111.779° ESE
9 mins2024-12-27 08:22:42.083Z11.164° NNE2024-12-27 08:26:42.083Z279.658° WNW44.514°2024-12-27 08:31:42.083Z202.081° SSW
9 mins2024-12-27 18:17:42.083Z124.208° SE2024-12-27 18:21:42.083Z70.571° E30.161°2024-12-27 18:26:42.083Z4.267° NNE
8 mins2024-12-27 20:00:42.083Z210.423° SW2024-12-27 20:03:42.083Z253.295° W28.558°2024-12-27 20:08:42.083Z321.887° NNW
|